| time (UTC) | temp F | wind direction | speed MPH | gust MPH | rain 1hr in | rain 24hr in | rain mn in | humidity % | barometer mb |
| 20260508142054 | 51 | 339 | 2.0 | 6.0 | 0.00 | 0.03 | 0.03 | 75 | 1012.2 |
| 20260508141553 | 51 | 309 | 2.0 | 12.0 | 0.00 | 0.03 | 0.03 | 75 | 1012.2 |
| 20260508141052 | 51 | 281 | 3.0 | 12.0 | 0.00 | 0.03 | 0.03 | 77 | 1012.2 |
| 20260508140550 | 50 | 41 | 2.0 | 8.0 | 0.00 | 0.03 | 0.03 | 78 | 1012.3 |
| 20260508140049 | 50 | 326 | 3.0 | 8.0 | 0.00 | 0.03 | 0.03 | 79 | 1012.4 |
| 20260508135548 | 49 | 288 | 1.0 | 7.0 | 0.01 | 0.03 | 0.03 | 80 | 1012.4 |
| 20260508135047 | 49 | 156 | 2.0 | 6.0 | 0.01 | 0.03 | 0.03 | 80 | 1012.5 |
| 20260508134546 | 49 | 233 | 2.0 | 7.0 | 0.01 | 0.03 | 0.03 | 80 | 1012.5 |
| 20260508134045 | 48 | 173 | 1.0 | 7.0 | 0.01 | 0.03 | 0.03 | 80 | 1012.4 |
| 20260508133545 | 48 | 264 | 1.0 | 6.0 | 0.01 | 0.03 | 0.03 | 80 | 1012.5 |
| 20260508133102 | 48 | 264 | 2.0 | 9.0 | 0.03 | 0.03 | 0.03 | 80 | 1012.4 |
| 20260508132543 | 48 | 215 | 5.0 | 9.0 | 0.03 | 0.03 | 0.03 | 80 | 1012.4 |
| 20260508132043 | 48 | 231 | 2.0 | 7.0 | 0.03 | 0.03 | 0.03 | 79 | 1012.3 |
| 20260508131543 | 48 | 140 | 3.0 | 7.0 | 0.03 | 0.03 | 0.03 | 79 | 1012.2 |
| 20260508131007 | 48 | 173 | 1.0 | 4.0 | 0.03 | 0.03 | 0.03 | 79 | 1012.4 |
| 20260508130508 | 48 | 205 | 2.0 | 4.0 | 0.03 | 0.03 | 0.03 | 78 | 1012.5 |
| 20260508130005 | 48 | 122 | 1.0 | 4.0 | 0.03 | 0.03 | 0.03 | 78 | 1012.7 |
| 20260508125505 | 48 | 130 | 1.0 | 4.0 | 0.02 | 0.02 | 0.02 | 77 | 1013.0 |
| 20260508125008 | 48 | 236 | 1.0 | 4.0 | 0.02 | 0.02 | 0.02 | 76 | 1012.8 |
| 20260508124505 | 48 | 93 | 1.0 | 4.0 | 0.02 | 0.02 | 0.02 | 76 | 1012.5 |
| 20260508124003 | 48 | 15 | 2.0 | 4.0 | 0.02 | 0.02 | 0.02 | 75 | 1012.9 |
| 20260508123502 | 48 | 322 | 1.0 | 4.0 | 0.02 | 0.02 | 0.02 | 74 | 1012.8 |
| 20260508123004 | 48 | 122 | 1.0 | 3.0 | 0.00 | 0.00 | 0.00 | 74 | 1012.9 |
| 20260508122503 | 48 | 309 | 0.0 | 6.0 | 0.00 | 0.00 | 0.00 | 74 | 1012.5 |
| 20260508122001 | 48 | 335 | 1.0 | 6.0 | 0.00 | 0.00 | 0.00 | 74 | 1012.4 |
| 20260508121603 | 48 | 304 | 1.0 | 4.0 | 0.00 | 0.00 | 0.00 | 74 | 1012.3 |
| 20260508121059 | 48 | 218 | 1.0 | 8.0 | 0.00 | 0.00 | 0.00 | 74 | 1012.3 |
| 20260508120602 | 48 | 84 | 1.0 | 8.0 | 0.00 | 0.00 | 0.00 | 74 | 1012.3 |
| 20260508115659 | 48 | 255 | 5.0 | 12.0 | 0.00 | 0.00 | 0.00 | 74 | 1012.1 |
| 20260508115056 | 48 | 236 | 3.0 | 11.0 | 0.00 | 0.00 | 0.00 | 74 | 1012.0 |
| 20260508114606 | 48 | 239 | 3.0 | 11.0 | 0.00 | 0.00 | 0.00 | 74 | 1011.9 |
| 20260508114056 | 48 | 250 | 4.0 | 11.0 | 0.00 | 0.00 | 0.00 | 74 | 1012.0 |
| 20260508113555 | 48 | 254 | 4.0 | 12.0 | 0.00 | 0.00 | 0.00 | 74 | 1011.9 |
| 20260508113104 | 47 | 236 | 6.0 | 13.0 | 0.00 | 0.00 | 0.00 | 74 | 1011.9 |
| 20260508112555 | 47 | 252 | 8.0 | 13.0 | 0.00 | 0.00 | 0.00 | 75 | 1011.7 |
| 20260508112053 | 47 | 279 | 4.0 | 12.0 | 0.00 | 0.00 | 0.00 | 75 | 1011.6 |
| 20260508111559 | 47 | 229 | 6.0 | 12.0 | 0.00 | 0.00 | 0.00 | 75 | 1011.5 |
| 20260508111051 | 47 | 231 | 6.0 | 11.0 | 0.00 | 0.00 | 0.00 | 75 | 1011.4 |
| 20260508110551 | 47 | 226 | 6.0 | 13.0 | 0.00 | 0.00 | 0.00 | 74 | 1011.6 |
| 20260508110050 | 47 | 239 | 5.0 | 15.0 | 0.00 | 0.00 | 0.00 | 74 | 1011.8 |
| 20260508105549 | 46 | 209 | 9.0 | 15.0 | 0.00 | 0.00 | 0.00 | 74 | 1011.8 |
| 20260508105049 | 46 | 266 | 9.0 | 18.0 | 0.00 | 0.00 | 0.00 | 75 | 1011.7 |
| 20260508104552 | 46 | 228 | 8.0 | 20.0 | 0.00 | 0.00 | 0.00 | 75 | 1011.6 |
| 20260508104048 | 46 | 215 | 8.0 | 20.0 | 0.00 | 0.00 | 0.00 | 75 | 1011.6 |
| 20260508103547 | 46 | 255 | 9.0 | 18.0 | 0.00 | 0.00 | 0.00 | 76 | 1011.7 |
| 20260508103046 | 46 | 214 | 7.0 | 18.0 | 0.00 | 0.00 | 0.00 | 76 | 1011.7 |
| 20260508102546 | 45 | 247 | 6.0 | 10.0 | 0.00 | 0.00 | 0.00 | 76 | 1011.7 |
| 20260508102046 | 45 | 211 | 5.0 | 10.0 | 0.00 | 0.00 | 0.00 | 76 | 1011.7 |
| 20260508101548 | 45 | 228 | 4.0 | 10.0 | 0.00 | 0.00 | 0.00 | 76 | 1011.6 |
| 20260508101044 | 45 | 201 | 4.0 | 11.0 | 0.00 | 0.00 | 0.00 | 76 | 1011.5 |
| 20260508100544 | 45 | 163 | 5.0 | 11.0 | 0.00 | 0.00 | 0.00 | 76 | 1011.6 |
| 20260508100044 | 45 | 178 | 5.0 | 13.0 | 0.00 | 0.00 | 0.00 | 76 | 1011.6 |
| 20260508095544 | 45 | 190 | 2.0 | 13.0 | 0.00 | 0.00 | 0.00 | 76 | 1011.6 |
| 20260508095044 | 45 | 209 | 3.0 | 10.0 | 0.00 | 0.00 | 0.00 | 76 | 1011.6 |
| 20260508094543 | 45 | 220 | 6.0 | 11.0 | 0.00 | 0.00 | 0.00 | 76 | 1011.6 |
| 20260508094042 | 45 | 240 | 5.0 | 13.0 | 0.00 | 0.00 | 0.00 | 76 | 1011.7 |
| 20260508093542 | 45 | 240 | 6.0 | 13.0 | 0.00 | 0.00 | 0.00 | 76 | 1011.7 |
| 20260508093041 | 45 | 204 | 5.0 | 12.0 | 0.00 | 0.00 | 0.00 | 76 | 1011.7 |
| 20260508092540 | 45 | 223 | 7.0 | 14.0 | 0.00 | 0.00 | 0.00 | 76 | 1011.8 |
| 20260508092040 | 45 | 224 | 5.0 | 14.0 | 0.00 | 0.00 | 0.00 | 76 | 1011.8 |
| 20260508091605 | 45 | 216 | 8.0 | 15.0 | 0.00 | 0.00 | 0.00 | 76 | 1011.9 |
| 20260508091038 | 45 | 201 | 4.0 | 15.0 | 0.00 | 0.00 | 0.00 | 76 | 1011.9 |
| 20260508090540 | 45 | 228 | 6.0 | 15.0 | 0.00 | 0.00 | 0.00 | 76 | 1011.9 |
| 20260508090038 | 45 | 189 | 5.0 | 18.0 | 0.00 | 0.00 | 0.00 | 76 | 1011.9 |
| 20260508085537 | 45 | 212 | 8.0 | 18.0 | 0.00 | 0.00 | 0.00 | 75 | 1011.9 |
| 20260508085040 | 45 | 218 | 5.0 | 14.0 | 0.00 | 0.00 | 0.00 | 75 | 1011.9 |
| 20260508084537 | 45 | 217 | 7.0 | 14.0 | 0.00 | 0.00 | 0.00 | 75 | 1011.9 |
| 20260508084036 | 45 | 163 | 8.0 | 14.0 | 0.00 | 0.00 | 0.00 | 75 | 1011.9 |
| 20260508083535 | 45 | 217 | 6.0 | 11.0 | 0.00 | 0.00 | 0.00 | 75 | 1011.9 |
| 20260508083039 | 45 | 203 | 7.0 | 13.0 | 0.00 | 0.00 | 0.00 | 75 | 1011.9 |
| 20260508082535 | 46 | 218 | 6.0 | 13.0 | 0.00 | 0.00 | 0.00 | 74 | 1012.0 |
| 20260508082035 | 46 | 236 | 8.0 | 12.0 | 0.00 | 0.00 | 0.00 | 74 | 1011.9 |
| 20260508081534 | 46 | 178 | 5.0 | 12.0 | 0.00 | 0.00 | 0.00 | 74 | 1012.0 |
| 20260508081032 | 46 | 189 | 6.0 | 12.0 | 0.00 | 0.00 | 0.00 | 74 | 1012.0 |
| 20260508080532 | 46 | 204 | 7.0 | 15.0 | 0.00 | 0.00 | 0.00 | 73 | 1012.0 |
| 20260508080032 | 46 | 209 | 5.0 | 18.0 | 0.00 | 0.00 | 0.00 | 73 | 1012.0 |
| 20260508075531 | 46 | 250 | 9.0 | 18.0 | 0.00 | 0.00 | 0.00 | 73 | 1012.0 |
| 20260508075032 | 46 | 224 | 7.0 | 22.0 | 0.00 | 0.00 | 0.00 | 72 | 1012.0 |
| 20260508074530 | 47 | 214 | 6.0 | 22.0 | 0.00 | 0.00 | 0.00 | 72 | 1012.0 |
| 20260508074029 | 47 | 213 | 10.0 | 22.0 | 0.00 | 0.00 | 0.00 | 72 | 1012.0 |
| 20260508073528 | 47 | 213 | 8.0 | 18.0 | 0.00 | 0.00 | 0.00 | 71 | 1012.0 |
| 20260508073033 | 47 | 221 | 6.0 | 20.0 | 0.00 | 0.00 | 0.00 | 71 | 1012.1 |
| 20260508072527 | 47 | 205 | 8.0 | 23.0 | 0.00 | 0.00 | 0.00 | 70 | 1012.1 |
| 20260508072026 | 47 | 199 | 11.0 | 23.0 | 0.00 | 0.00 | 0.00 | 70 | 1012.1 |
| 20260508071532 | 47 | 223 | 7.0 | 19.0 | 0.00 | 0.00 | 0.00 | 70 | 1012.1 |
| 20260508071027 | 47 | 210 | 8.0 | 23.0 | 0.00 | 0.00 | 0.00 | 69 | 1012.1 |
| 20260508070526 | 47 | 264 | 11.0 | 23.0 | 0.00 | 0.00 | 0.00 | 69 | 1012.1 |
| 20260508070024 | 47 | 255 | 10.0 | 22.0 | 0.00 | 0.00 | 0.00 | 69 | 1012.1 |
| 20260508065522 | 47 | 233 | 12.0 | 22.0 | 0.00 | 0.00 | 0.00 | 68 | 1012.1 |
| 20260508065022 | 47 | 211 | 6.0 | 14.0 | 0.00 | 0.00 | 0.00 | 68 | 1012.0 |
| 20260508064531 | 47 | 214 | 6.0 | 17.0 | 0.00 | 0.00 | 0.00 | 68 | 1012.0 |
| 20260508064022 | 47 | 227 | 8.0 | 17.0 | 0.00 | 0.00 | 0.00 | 67 | 1012.0 |
| 20260508063522 | 47 | 232 | 7.0 | 15.0 | 0.00 | 0.00 | 0.00 | 67 | 1012.0 |
| 20260508063020 | 47 | 220 | 7.0 | 15.0 | 0.00 | 0.00 | 0.00 | 67 | 1012.1 |
| 20260508062523 | 47 | 227 | 5.0 | 11.0 | 0.00 | 0.00 | 0.00 | 68 | 1012.2 |
| 20260508062019 | 47 | 233 | 4.0 | 11.0 | 0.00 | 0.00 | 0.00 | 67 | 1012.2 |
| 20260508061519 | 47 | 195 | 5.0 | 12.0 | 0.00 | 0.00 | 0.00 | 68 | 1012.2 |
| 20260508061019 | 47 | 218 | 7.0 | 12.0 | 0.00 | 0.00 | 0.00 | 68 | 1012.2 |
| 20260508060523 | 47 | 218 | 4.0 | 12.0 | 0.00 | 0.00 | 0.00 | 68 | 1012.3 |
| 20260508060019 | 47 | 222 | 6.0 | 12.0 | 0.00 | 0.00 | 0.00 | 68 | 1012.3 |
| 20260508055517 | 47 | 222 | 6.0 | 12.0 | 0.00 | 0.00 | 0.00 | 68 | 1012.3 |
| 20260508055016 | 47 | 192 | 5.0 | 9.0 | 0.00 | 0.00 | 0.00 | 68 | 1012.4 |
| 20260508054516 | 47 | 248 | 4.0 | 9.0 | 0.00 | 0.00 | 0.00 | 68 | 1012.5 |
| 20260508054016 | 47 | 233 | 5.0 | 10.0 | 0.00 | 0.00 | 0.00 | 68 | 1012.5 |
| 20260508053514 | 47 | 250 | 5.0 | 11.0 | 0.00 | 0.00 | 0.00 | 68 | 1012.6 |
| 20260508053014 | 47 | 236 | 3.0 | 11.0 | 0.00 | 0.00 | 0.00 | 68 | 1012.6 |
| 20260508052513 | 47 | 195 | 5.0 | 11.0 | 0.00 | 0.00 | 0.00 | 68 | 1012.7 |
| 20260508052018 | 47 | 218 | 3.0 | 10.0 | 0.00 | 0.00 | 0.00 | 68 | 1012.7 |
| 20260508051512 | 46 | 214 | 5.0 | 10.0 | 0.00 | 0.00 | 0.00 | 68 | 1012.8 |
| 20260508051011 | 46 | 203 | 5.0 | 9.0 | 0.00 | 0.00 | 0.00 | 68 | 1012.8 |
| 20260508050511 | 46 | 224 | 4.0 | 8.0 | 0.00 | 0.00 | 0.00 | 68 | 1012.8 |
| 20260508050013 | 46 | 224 | 4.0 | 8.0 | 0.00 | 0.00 | 0.00 | 68 | 1012.8 |
| 20260508045510 | 46 | 290 | 4.0 | 8.0 | 0.00 | 0.00 | 0.00 | 68 | 1012.8 |
| 20260508045010 | 46 | 204 | 4.0 | 9.0 | 0.00 | 0.00 | 0.00 | 68 | 1012.9 |
| 20260508044510 | 47 | 221 | 5.0 | 12.0 | 0.00 | 0.00 | 0.00 | 68 | 1012.9 |
| 20260508044009 | 46 | 208 | 5.0 | 12.0 | 0.00 | 0.00 | 0.00 | 68 | 1012.9 |
| 20260508043509 | 46 | 254 | 5.0 | 14.0 | 0.00 | 0.00 | 0.00 | 68 | 1012.9 |
| 20260508043008 | 46 | 208 | 6.0 | 14.0 | 0.00 | 0.00 | 0.00 | 68 | 1012.9 |
| 20260508042507 | 46 | 229 | 4.0 | 13.0 | 0.00 | 0.00 | 0.00 | 68 | 1012.9 |
| 20260508042011 | 46 | 224 | 6.0 | 13.0 | 0.00 | 0.00 | 0.00 | 67 | 1012.9 |
| 20260508041509 | 46 | 216 | 4.0 | 12.0 | 0.00 | 0.00 | 0.00 | 67 | 1012.9 |
| 20260508041004 | 46 | 222 | 7.0 | 12.0 | 0.00 | 0.00 | 0.00 | 67 | 1012.8 |
| 20260508040502 | 46 | 236 | 5.0 | 10.0 | 0.00 | 0.00 | 0.00 | 66 | 1012.8 |
| 20260508040001 | 46 | 190 | 3.0 | 12.0 | 0.00 | 0.00 | 0.00 | 66 | 1012.8 |
| 20260508035502 | 46 | 179 | 7.0 | 12.0 | 0.00 | 0.00 | 0.00 | 66 | 1012.9 |
| 20260508035001 | 46 | 224 | 6.0 | 12.0 | 0.00 | 0.00 | 0.00 | 66 | 1013.0 |
| 20260508034500 | 46 | 253 | 6.0 | 12.0 | 0.00 | 0.00 | 0.00 | 66 | 1013.0 |
| 20260508034001 | 45 | 208 | 5.0 | 13.0 | 0.00 | 0.00 | 0.00 | 66 | 1013.0 |
| 20260508033501 | 45 | 202 | 7.0 | 13.0 | 0.00 | 0.00 | 0.00 | 65 | 1013.0 |
| 20260508033107 | 45 | 211 | 6.0 | 13.0 | 0.00 | 0.00 | 0.00 | 65 | 1013.0 |
| 20260508032600 | 44 | 209 | 6.0 | 13.0 | 0.00 | 0.00 | 0.00 | 65 | 1013.0 |
| 20260508032502 | 44 | 239 | 6.0 | 13.0 | 0.00 | 0.00 | 0.00 | 65 | 1013.0 |
| 20260508032059 | 44 | 221 | 5.0 | 10.0 | 0.00 | 0.00 | 0.00 | 65 | 1013.0 |
| 20260508031606 | 44 | 197 | 4.0 | 9.0 | 0.00 | 0.00 | 0.00 | 65 | 1012.9 |
| 20260508031059 | 44 | 218 | 3.0 | 8.0 | 0.00 | 0.00 | 0.00 | 65 | 1013.0 |
| 20260508030559 | 43 | 223 | 3.0 | 8.0 | 0.00 | 0.00 | 0.00 | 66 | 1012.9 |
| 20260508030502 | 43 | 218 | 3.0 | 8.0 | 0.00 | 0.00 | 0.00 | 66 | 1012.9 |
| 20260508030111 | 43 | 173 | 2.0 | 6.0 | 0.00 | 0.00 | 0.00 | 65 | 1012.9 |
| 20260508025558 | 43 | 173 | 3.0 | 7.0 | 0.00 | 0.00 | 0.00 | 66 | 1012.9 |
| 20260508025058 | 43 | 209 | 3.0 | 7.0 | 0.00 | 0.00 | 0.00 | 66 | 1013.0 |
| 20260508024603 | 43 | 220 | 3.0 | 7.0 | 0.00 | 0.00 | 0.00 | 66 | 1013.0 |
| 20260508024058 | 43 | 213 | 3.0 | 5.0 | 0.00 | 0.00 | 0.00 | 66 | 1012.9 |
| 20260508023601 | 43 | 215 | 2.0 | 4.0 | 0.00 | 0.00 | 0.00 | 66 | 1012.8 |
| 20260508023059 | 43 | 164 | 2.0 | 4.0 | 0.00 | 0.00 | 0.00 | 66 | 1012.8 |
| 20260508022558 | 44 | 173 | 1.0 | 4.0 | 0.00 | 0.00 | 0.00 | 65 | 1012.9 |
| 20260508022058 | 44 | 205 | 1.0 | 4.0 | 0.00 | 0.00 | 0.00 | 65 | 1012.8 |
| 20260508021558 | 44 | 214 | 2.0 | 4.0 | 0.00 | 0.00 | 0.00 | 65 | 1012.9 |
| 20260508021058 | 44 | 204 | 2.0 | 4.0 | 0.00 | 0.00 | 0.00 | 64 | 1012.9 |
| 20260508020557 | 44 | 192 | 2.0 | 4.0 | 0.00 | 0.00 | 0.00 | 64 | 1012.8 |
| 20260508020106 | 45 | 208 | 2.0 | 3.0 | 0.00 | 0.00 | 0.00 | 64 | 1012.8 |
| 20260508015556 | 45 | 196 | 1.0 | 3.0 | 0.00 | 0.00 | 0.00 | 63 | 1012.8 |
| 20260508015056 | 45 | 218 | 2.0 | 4.0 | 0.00 | 0.00 | 0.00 | 62 | 1012.8 |
| 20260508014556 | 46 | 224 | 2.0 | 4.0 | 0.00 | 0.00 | 0.00 | 61 | 1012.8 |
| 20260508014059 | 46 | 204 | 2.0 | 4.0 | 0.00 | 0.00 | 0.00 | 61 | 1012.7 |
| 20260508013555 | 46 | 196 | 2.0 | 4.0 | 0.00 | 0.00 | 0.00 | 60 | 1012.6 |
| 20260508013056 | 47 | 196 | 2.0 | 4.0 | 0.00 | 0.00 | 0.00 | 59 | 1012.6 |
| 20260508012557 | 47 | 197 | 2.0 | 4.0 | 0.00 | 0.00 | 0.00 | 58 | 1012.5 |
| 20260508012057 | 47 | 173 | 1.0 | 4.0 | 0.00 | 0.00 | 0.00 | 58 | 1012.6 |
| 20260508011555 | 48 | 185 | 2.0 | 4.0 | 0.00 | 0.00 | 0.00 | 57 | 1012.5 |
| 20260508011054 | 48 | 214 | 2.0 | 4.0 | 0.00 | 0.00 | 0.00 | 56 | 1012.5 |
| 20260508010554 | 49 | 214 | 2.0 | 4.0 | 0.00 | 0.00 | 0.00 | 55 | 1012.5 |
| 20260508005558 | 49 | 218 | 0.0 | 5.0 | 0.00 | 0.00 | 0.00 | 53 | 1012.5 |
| 20260508005055 | 50 | 355 | 0.0 | 5.0 | 0.00 | 0.00 | 0.00 | 53 | 1012.4 |
| 20260508004553 | 50 | 229 | 1.0 | 4.0 | 0.00 | 0.00 | 0.00 | 52 | 1012.5 |
| 20260508004053 | 50 | 84 | 1.0 | 5.0 | 0.00 | 0.00 | 0.00 | 52 | 1012.5 |
| 20260508003553 | 50 | 247 | 1.0 | 5.0 | 0.00 | 0.00 | 0.00 | 51 | 1012.4 |
| 20260508003102 | 50 | 264 | 0.0 | 11.0 | 0.00 | 0.00 | 0.00 | 51 | 1012.5 |
| 20260508002553 | 51 | 301 | 1.0 | 11.0 | 0.00 | 0.00 | 0.00 | 50 | 1012.4 |
| 20260508002053 | 51 | 218 | 3.0 | 0.0 | 0.00 | 0.00 | 0.00 | 49 | 1012.4 |
| 20260508001556 | 51 | 339 | 2.0 | 9.0 | 0.00 | 0.00 | 0.00 | 49 | 1012.3 |
| 20260508001052 | 51 | 319 | 3.0 | 9.0 | 0.00 | 0.00 | 0.00 | 49 | 1012.3 |
| 20260508000551 | 52 | 317 | 1.0 | 9.0 | 0.00 | 0.00 | 0.00 | 49 | 1012.3 |
| 20260508000052 | 52 | 264 | 1.0 | 10.0 | 0.00 | 0.00 | 0.00 | 49 | 1012.3 |
| 20260507235552 | 52 | 84 | 3.0 | 13.0 | 0.00 | 0.00 | 0.00 | 49 | 1012.2 |
| 20260507235050 | 52 | 331 | 3.0 | 13.0 | 0.00 | 0.00 | 0.00 | 48 | 1012.2 |
| 20260507234551 | 52 | 298 | 3.0 | 12.0 | 0.00 | 0.00 | 0.00 | 48 | 1012.1 |
| 20260507234052 | 53 | 309 | 4.0 | 12.0 | 0.00 | 0.00 | 0.00 | 48 | 1012.1 |
| 20260507233550 | 53 | 295 | 3.0 | 9.0 | 0.00 | 0.00 | 0.00 | 48 | 1012.1 |
| 20260507233051 | 53 | 285 | 3.0 | 9.0 | 0.00 | 0.00 | 0.00 | 47 | 1012.1 |
| 20260507232550 | 53 | 278 | 3.0 | 8.0 | 0.00 | 0.00 | 0.00 | 48 | 1012.1 |
| 20260507232049 | 53 | 294 | 2.0 | 8.0 | 0.00 | 0.00 | 0.00 | 46 | 1012.1 |
| 20260507231550 | 53 | 319 | 4.0 | 12.0 | 0.00 | 0.00 | 0.00 | 46 | 1012.1 |
| 20260507231050 | 53 | 243 | 4.0 | 14.0 | 0.00 | 0.00 | 0.00 | 48 | 1012.2 |
| 20260507230549 | 53 | 250 | 4.0 | 14.0 | 0.00 | 0.00 | 0.00 | 48 | 1012.2 |
| 20260507230106 | 54 | 276 | 4.0 | 14.0 | 0.00 | 0.00 | 0.00 | 47 | 1012.3 |
| 20260507225548 | 54 | 326 | 4.0 | 16.0 | 0.00 | 0.00 | 0.00 | 48 | 1012.3 |
| 20260507225048 | 54 | 303 | 6.0 | 16.0 | 0.00 | 0.00 | 0.00 | 48 | 1012.3 |
| 20260507224549 | 54 | 323 | 5.0 | 18.0 | 0.00 | 0.00 | 0.00 | 48 | 1012.3 |
| 20260507224048 | 54 | 335 | 7.0 | 18.0 | 0.00 | 0.00 | 0.00 | 47 | 1012.2 |
| 20260507223546 | 54 | 281 | 5.0 | 14.0 | 0.00 | 0.00 | 0.00 | 47 | 1012.3 |
| 20260507223132 | 54 | 290 | 5.0 | 13.0 | 0.00 | 0.00 | 0.00 | 48 | 1012.3 |
| 20260507222546 | 54 | 248 | 4.0 | 11.0 | 0.00 | 0.00 | 0.00 | 47 | 1012.3 |
| 20260507222046 | 53 | 323 | 4.0 | 13.0 | 0.00 | 0.00 | 0.00 | 48 | 1012.4 |
| 20260507221546 | 53 | 51 | 4.0 | 17.0 | 0.00 | 0.00 | 0.00 | 47 | 1012.4 |
| 20260507221046 | 53 | 247 | 3.0 | 23.0 | 0.00 | 0.00 | 0.00 | 47 | 1012.4 |
| 20260507220546 | 53 | 337 | 4.0 | 23.0 | 0.00 | 0.00 | 0.00 | 46 | 1012.4 |
| 20260507220044 | 53 | 356 | 7.0 | 19.0 | 0.00 | 0.00 | 0.00 | 47 | 1012.4 |
| 20260507215544 | 53 | 292 | 5.0 | 18.0 | 0.00 | 0.00 | 0.00 | 46 | 1012.3 |
| 20260507215043 | 53 | 300 | 8.0 | 29.0 | 0.00 | 0.00 | 0.00 | 46 | 1012.3 |
| 20260507214552 | 53 | 300 | 9.0 | 29.0 | 0.00 | 0.00 | 0.00 | 47 | 1012.1 |
| 20260507214042 | 54 | 221 | 6.0 | 17.0 | 0.00 | 0.00 | 0.00 | 49 | 1012.2 |
| 20260507213541 | 54 | 305 | 7.0 | 17.0 | 0.00 | 0.00 | 0.00 | 50 | 1012.1 |
| 20260507213042 | 54 | 311 | 4.0 | 16.0 | 0.00 | 0.00 | 0.00 | 53 | 1012.1 |
| 20260507212541 | 54 | 313 | 3.0 | 17.0 | 0.00 | 0.00 | 0.00 | 54 | 1012.1 |
| 20260507212040 | 54 | 264 | 6.0 | 27.0 | 0.00 | 0.00 | 0.00 | 55 | 1012.1 |
| 20260507211542 | 54 | 264 | 5.0 | 27.0 | 0.00 | 0.00 | 0.00 | 56 | 1012.1 |
| 20260507211038 | 53 | 264 | 4.0 | 16.0 | 0.00 | 0.00 | 0.00 | 56 | 1012.0 |
| 20260507210538 | 53 | 325 | 4.0 | 14.0 | 0.00 | 0.00 | 0.00 | 58 | 1011.8 |
| 20260507210042 | 52 | 247 | 4.0 | 13.0 | 0.00 | 0.00 | 0.00 | 61 | 1011.8 |
| 20260507205538 | 52 | 313 | 5.0 | 12.0 | 0.00 | 0.00 | 0.00 | 61 | 1011.8 |
| 20260507205036 | 51 | 301 | 2.0 | 9.0 | 0.00 | 0.00 | 0.00 | 60 | 1011.7 |
| 20260507204541 | 51 | 236 | 4.0 | 17.0 | 0.00 | 0.00 | 0.00 | 59 | 1011.7 |
| 20260507204036 | 52 | 301 | 3.0 | 17.0 | 0.00 | 0.00 | 0.00 | 60 | 1011.8 |
| 20260507203537 | 52 | 245 | 6.0 | 16.0 | 0.00 | 0.00 | 0.00 | 59 | 1011.8 |
| 20260507203040 | 52 | 326 | 5.0 | 16.0 | 0.00 | 0.00 | 0.00 | 59 | 1011.9 |
| 20260507202536 | 52 | 297 | 5.0 | 12.0 | 0.00 | 0.00 | 0.00 | 60 | 1011.7 |
| 20260507202038 | 51 | 286 | 3.0 | 9.0 | 0.00 | 0.00 | 0.00 | 62 | 1011.7 |
| 20260507201540 | 51 | 333 | 2.0 | 13.0 | 0.00 | 0.00 | 0.00 | 62 | 1011.7 |
| 20260507201034 | 52 | 331 | 4.0 | 13.0 | 0.00 | 0.00 | 0.00 | 60 | 1011.6 |
| 20260507200534 | 52 | 9 | 7.0 | 17.0 | 0.00 | 0.00 | 0.00 | 60 | 1011.5 |
| 20260507200049 | 52 | 351 | 5.0 | 16.0 | 0.00 | 0.00 | 0.00 | 59 | 1011.5 |
| 20260507195533 | 53 | 264 | 4.0 | 16.0 | 0.00 | 0.01 | 0.00 | 60 | 1011.5 |
| 20260507195034 | 53 | 336 | 8.0 | 16.0 | 0.00 | 0.01 | 0.00 | 60 | 1011.6 |
| 20260507194532 | 53 | 344 | 5.0 | 9.0 | 0.00 | 0.01 | 0.00 | 60 | 1011.6 |
| 20260507194031 | 53 | 356 | 1.0 | 14.0 | 0.00 | 0.01 | 0.00 | 60 | 1011.6 |
| 20260507193531 | 53 | 303 | 4.0 | 14.0 | 0.00 | 0.01 | 0.00 | 60 | 1011.8 |
| 20260507193042 | 53 | 311 | 3.0 | 11.0 | 0.00 | 0.01 | 0.00 | 60 | 1011.7 |
| 20260507192530 | 53 | 319 | 2.0 | 11.0 | 0.00 | 0.01 | 0.00 | 60 | 1011.8 |
| 20260507192030 | 53 | 312 | 3.0 | 8.0 | 0.00 | 0.01 | 0.00 | 60 | 1011.8 |
| 20260507191529 | 53 | 347 | 4.0 | 16.0 | 0.00 | 0.01 | 0.00 | 60 | 1011.8 |
| 20260507191027 | 53 | 336 | 8.0 | 16.0 | 0.00 | 0.01 | 0.00 | 59 | 1011.9 |
| 20260507190527 | 53 | 356 | 4.0 | 13.0 | 0.00 | 0.01 | 0.00 | 60 | 1012.0 |
| 20260507190035 | 52 | 304 | 4.0 | 14.0 | 0.00 | 0.01 | 0.00 | 59 | 1012.0 |
| 20260507185525 | 52 | 310 | 7.0 | 14.0 | 0.00 | 0.01 | 0.00 | 58 | 1012.0 |
| 20260507185026 | 53 | 359 | 8.0 | 13.0 | 0.00 | 0.01 | 0.00 | 58 | 1012.0 |
| 20260507184525 | 53 | 309 | 3.0 | 7.0 | 0.00 | 0.01 | 0.00 | 59 | 1012.0 |
| 20260507184025 | 52 | 307 | 3.0 | 12.0 | 0.00 | 0.01 | 0.00 | 59 | 1012.0 |
| 20260507183523 | 52 | 322 | 4.0 | 12.0 | 0.00 | 0.01 | 0.00 | 58 | 1012.0 |
| 20260507183035 | 52 | 309 | 4.0 | 15.0 | 0.00 | 0.01 | 0.00 | 58 | 1012.1 |
| 20260507182523 | 52 | 344 | 8.0 | 15.0 | 0.00 | 0.01 | 0.00 | 57 | 1012.1 |
| 20260507182023 | 52 | 6 | 7.0 | 15.0 | 0.00 | 0.01 | 0.00 | 56 | 1012.1 |
| 20260507181523 | 53 | 334 | 2.0 | 14.0 | 0.00 | 0.01 | 0.00 | 57 | 1012.1 |
| 20260507181024 | 53 | 313 | 6.0 | 14.0 | 0.00 | 0.01 | 0.00 | 55 | 1012.1 |
| 20260507180525 | 53 | 1 | 4.0 | 10.0 | 0.00 | 0.01 | 0.00 | 56 | 1012.1 |
| 20260507180022 | 53 | 319 | 3.0 | 14.0 | 0.00 | 0.01 | 0.00 | 56 | 1012.0 |
| 20260507175520 | 53 | 295 | 5.0 | 14.0 | 0.00 | 0.01 | 0.00 | 55 | 1012.1 |
| 20260507175020 | 53 | 334 | 5.0 | 14.0 | 0.00 | 0.01 | 0.00 | 55 | 1012.0 |
| 20260507174520 | 53 | 344 | 7.0 | 17.0 | 0.00 | 0.01 | 0.00 | 53 | 1012.1 |
| 20260507174020 | 54 | 8 | 3.0 | 17.0 | 0.00 | 0.01 | 0.00 | 55 | 1012.2 |
| 20260507173519 | 54 | 15 | 5.0 | 13.0 | 0.00 | 0.01 | 0.00 | 54 | 1012.1 |
| 20260507173020 | 54 | 333 | 4.0 | 17.0 | 0.00 | 0.01 | 0.00 | 54 | 1012.2 |
| 20260507172520 | 54 | 316 | 7.0 | 17.0 | 0.00 | 0.01 | 0.00 | 55 | 1012.2 |
| 20260507172016 | 54 | 345 | 8.0 | 15.0 | 0.00 | 0.01 | 0.00 | 55 | 1012.3 |
| 20260507171515 | 54 | 311 | 3.0 | 14.0 | 0.00 | 0.01 | 0.00 | 55 | 1012.2 |
| 20260507171015 | 54 | 323 | 6.0 | 11.0 | 0.00 | 0.01 | 0.00 | 56 | 1012.2 |
| 20260507170514 | 54 | 8 | 4.0 | 9.0 | 0.00 | 0.01 | 0.00 | 55 | 1012.3 |
| 20260507170013 | 54 | 332 | 5.0 | 15.0 | 0.00 | 0.01 | 0.00 | 55 | 1012.4 |
| 20260507165513 | 54 | 351 | 6.0 | 15.0 | 0.00 | 0.01 | 0.00 | 59 | 1012.3 |
| 20260507165013 | 53 | 345 | 3.0 | 9.0 | 0.00 | 0.01 | 0.00 | 60 | 1012.3 |
| 20260507164512 | 53 | 347 | 3.0 | 9.0 | 0.00 | 0.01 | 0.00 | 58 | 1012.3 |
| 20260507164015 | 53 | 344 | 4.0 | 8.0 | 0.00 | 0.01 | 0.00 | 60 | 1012.3 |
| 20260507163512 | 53 | 345 | 3.0 | 12.0 | 0.00 | 0.01 | 0.00 | 58 | 1012.4 |
| 20260507163012 | 53 | 302 | 6.0 | 15.0 | 0.00 | 0.01 | 0.00 | 58 | 1012.3 |
| 20260507162512 | 54 | 299 | 7.0 | 15.0 | 0.00 | 0.01 | 0.00 | 59 | 1012.3 |
| 20260507162014 | 54 | 264 | 2.0 | 7.0 | 0.00 | 0.01 | 0.00 | 60 | 1012.4 |
| 20260507161512 | 54 | 297 | 2.0 | 11.0 | 0.00 | 0.01 | 0.00 | 58 | 1012.4 |
| 20260507161010 | 55 | 283 | 5.0 | 11.0 | 0.00 | 0.01 | 0.00 | 57 | 1012.4 |
| 20260507160510 | 55 | 315 | 4.0 | 13.0 | 0.00 | 0.01 | 0.00 | 58 | 1012.4 |
| 20260507160013 | 55 | 301 | 5.0 | 13.0 | 0.00 | 0.01 | 0.00 | 57 | 1012.3 |
| 20260507155509 | 55 | 335 | 4.0 | 9.0 | 0.00 | 0.01 | 0.00 | 54 | 1012.3 |
| 20260507155011 | 56 | 342 | 2.0 | 10.0 | 0.00 | 0.01 | 0.00 | 51 | 1012.3 |
| 20260507154508 | 56 | 328 | 6.0 | 11.0 | 0.00 | 0.01 | 0.00 | 51 | 1012.3 |
| 20260507154009 | 56 | 163 | 5.0 | 15.0 | 0.00 | 0.01 | 0.00 | 55 | 1012.3 |
| 20260507153508 | 55 | 235 | 7.0 | 15.0 | 0.00 | 0.01 | 0.00 | 59 | 1012.3 |
| 20260507153005 | 54 | 232 | 6.0 | 13.0 | 0.00 | 0.01 | 0.00 | 54 | 1012.4 |
| 20260507152505 | 54 | 332 | 2.0 | 10.0 | 0.00 | 0.01 | 0.00 | 54 | 1012.4 |
| 20260507152004 | 54 | 236 | 3.0 | 11.0 | 0.00 | 0.01 | 0.00 | 55 | 1012.4 |
| 20260507151504 | 54 | 236 | 3.0 | 11.0 | 0.00 | 0.01 | 0.00 | 54 | 1012.5 |
| 20260507151002 | 55 | 248 | 2.0 | 14.0 | 0.00 | 0.01 | 0.00 | 55 | 1012.5 |
| 20260507150502 | 55 | 278 | 3.0 | 14.0 | 0.00 | 0.01 | 0.00 | 55 | 1012.5 |
| 20260507150110 | 55 | 239 | 4.0 | 14.0 | 0.00 | 0.01 | 0.00 | 55 | 1012.5 |
| 20260507145601 | 54 | 222 | 3.0 | 9.0 | 0.00 | 0.01 | 0.00 | 56 | 1012.4 |
| 20260507145104 | 55 | 303 | 2.0 | 10.0 | 0.00 | 0.01 | 0.00 | 58 | 1012.4 |
| 20260507144559 | 55 | 324 | 3.0 | 10.0 | 0.00 | 0.01 | 0.00 | 56 | 1012.5 |
| 20260507144058 | 55 | 316 | 2.0 | 8.0 | 0.00 | 0.01 | 0.00 | 56 | 1012.5 |
| 20260507143556 | 54 | 250 | 4.0 | 8.0 | 0.00 | 0.01 | 0.00 | 57 | 1012.4 |
| 20260507143100 | 54 | 51 | 2.0 | 11.0 | 0.00 | 0.01 | 0.00 | 57 | 1012.4 |
| 20260507142555 | 54 | 290 | 4.0 | 12.0 | 0.00 | 0.01 | 0.00 | 56 | 1012.5 |